Regional Weather Roundup
Issued by NWS Charleston, SC

Current Version | Previous Version | Text Only | Print | Product List | Glossary Off
Versions: 1 2 3 4 5 6 7 8 9 10 11 12 13 14 15 16 17 18 19 20 21 22 23 24 25 26 27 28 29 30 31 32 33 34 35 36 37 38 39 40 41 42 43 44 45 46 47 48 49 50

000
ASUS42 KCHS 221612
RWRCHS

REGIONAL WEATHER ROUNDUP
NATIONAL WEATHER SERVICE CHARLESTON SC
1200 PM EDT THU JUN 22 2017

NOTE: "FAIR" INDICATES FEW OR NO CLOUDS BELOW 12,000 FEET WITH NO
SIGNIFICANT WEATHER AND/OR OBSTRUCTIONS TO VISIBILITY.

NOT ALL STATIONS ARE QUALITY CONTROLLED. USE DATA WITH CAUTION...
ESPECIALLY DEWPOINT OBSERVATIONS.

SCZ027-030-031-034>040-042>050-221700-
...SOUTHEAST SOUTH CAROLINA...

CITY           SKY/WX    TMP DP  RH WIND       PRES   REMARKS
N CHARLESTON   CLOUDY    86  75  69 SW9       30.12S HX  95
WATERFRONT PRK   N/A     84  77  79 S8        30.10S HX  94
JOHNS ISLAND   FAIR      84  77  79 SW7G14    30.12F HX  94
PINOPOLIS        N/A     84  79  84 CALM      30.06S HX  96
MONCKS CORNER  FAIR      84  75  74 S3        30.12S HX  92
SUMMERVILLE    FAIR      86  75  70 CALM      30.12F HX  95
BEAUFORT MCAS  CLOUDY    86  78  77 SE3       30.11S HX  98
BEAUFORT ARPT  FAIR      84  77  79 S6        30.11S HAZE    HX  94
HILTON HEAD IS MOSUNNY   84  79  84 S10         N/A  HX  96
WALTERBORO     CLOUDY    82  77  83 S7        30.13S HX  91
ALLENDALE      PTSUNNY   82  77  83 CALM      30.11S HX  91

...SOUTHERN MIDLANDS AND PEE DEE...

CITY           SKY/WX    TMP DP  RH WIND       PRES   REMARKS
GEORGETOWN     PTSUNNY   84  77  79 W7        30.13F HX  94
KINGSTREE      FAIR      82  73  74 SW5       30.12F
ORANGEBURG     LGT RAIN  83  76  79 SW3       30.13S HX  91
BARNWELL       CLOUDY    84  79  84 CALM      30.12S HX  96
AIKEN          FAIR      81  73  78 CALM      30.16F
MANNING        PTSUNNY   84  77  79 NW18G28   30.12S HX  94
COLUMBIA       CLOUDY    83  73  72 N3        30.12F
SUMTER         CLOUDY    83  74  74 NW5       30.11S
FLORENCE       CLOUDY    82  75  79 NW3       30.13S
MYRTLE BEACH   CLOUDY    81  75  83 S16G24    30.12
N MYRTLE BEACH TSTM      78  77  96 SW14G23   30.13R VSB 1/2

$$

GAZ063-065-086>088-099>101-113>116-118-119-134>141-150-221700-
...SOUTHEAST GEORGIA...

CITY           SKY/WX    TMP DP  RH WIND       PRES   REMARKS
SAVANNAH ARPT  CLOUDY    88  73  61 W9        30.11F HX  95
HUNTER AAF     PTSUNNY   87  75  68 CALM      30.08F HX  96
FORT STEWART   CLOUDY    86  74  67 SE5       30.08F HX  94
STATESBORO     MOSUNNY   85  75  72 W3        30.10F HX  94
SYLVANIA       CLOUDY    86  79  79 CALM      30.12F HX  99
CLAXTON        FAIR     N/A N/A N/A CALM      30.10F

...CSRA...CENTRAL AND FAR SOUTHEAST GEORGIA...

CITY           SKY/WX    TMP DP  RH WIND       PRES   REMARKS
THOMSON        CLOUDY    82  75  79 SW6       30.17S
AUGUSTA-BUSH   PTSUNNY   86  76  71 SE3       30.11S HX  96
AUGUSTA-DANIEL PTSUNNY   84  73  69 SE6       30.13S HX  90
SWAINSBORO     PTSUNNY   82  75  78 CALM      30.12S
VIDALIA        CLOUDY    86  75  70 S6        30.11S HX  95
EASTMAN        FAIR      85  66  52 CALM      30.12S
HAZLEHURST     FAIR      84  77  79 CALM      30.10S HX  95
ALMA           CLOUDY    85  75  72 VRB5      30.10F HX  93
WAYCROSS       CLOUDY    89  81  78 S5        30.10S HX 107
JESUP          FAIR      88  73  62 SW3       30.10F HX  96
BAXLEY         FAIR      86  81  84 S3        30.10F HX 102
BRUNSWICK      CLOUDY    90  79  70 SW7       30.11S HX 105
SAINT SIMONS   MOSUNNY   87  79  76 S10       30.10S HX 101

$$

SCZ027-028-034-036>038-045-046-048>050-GAZ119-141-221700-
...LAKE AND SUPPLEMENTAL COASTAL OBSERVATIONS...

STATION/POSITION TIME  TEMP    WIND        PRES    WAVE   SWELL
                       AIR SEA DIR/SP/G            HT/PER HT/PER/DIR
                 (UTC) (F)     (DEG/KT/KT) (MB)    (FT/S) (FT/S/D)
WINYAH BAY       NOT AVBL
LAKE MURRAY      1520   79        CALM     1019.3S
ACE BASIN NERRS  NOT AVBL
FORT PULASKI     1542   85 83  210/  6/ 10 1019.9F
SAPELO ISLAND    1500   87     170/ 10     1019.0

$$

ANZ835-935-AMZ111-154-330-350-352-354-370-450-454-472-221700-
...C-MAN AND BUOY OBSERVATIONS...

STATION/POSITION TIME  TEMP    WIND        PRES    WAVE   SWELL
                       AIR SEA DIR/SP/G            HT/PER HT/PER/DIR
                 (UTC) (F)     (DEG/KT/KT) (MB)    (FT/S) (FT/S/D)
BUOY 41004       1550   81 81  200/  6/  8 1020.0S   3/ 7   3/140/ 7
BUOY 41008       1550   81 81  190/ 12/ 14 1019.4R   3/ 9   2/110/ 9
FOLLY BEACH CMAN 1500   82     200/ 10/ 10 1020.8R
CAPERS NEARSHORE 1508   85 82  220/ 10/ 16 1020.1R
FRIPP NEARSHORE  1508   82 83  200/ 10/ 12 1019.7R


STATION/POSITION TIME  TEMP    WIND        PRES    WAVE   SWELL
                       AIR SEA DIR/SP/G            HT/PER HT/PER/DIR
                 (UTC) (F)     (DEG/KT/KT) (MB)    (FT/S) (FT/S/D)
5E ST. MARYS GA  1530      80                N/A     3/ 8
FRYING PAN BUOY  1550   81 81  250/  8/ 10 1020.1R   3/ 7   3/150/ 7
BUOY 41025       1550   79 79  240/ 10/ 12 1019.3R   2/ 7   2/190/ 7
CAPE LOOKOUT NC  1500   81     240/  7/  9 1019.1R
BUOY 41002       1550   81 82  210/ 12/ 14 1021.3F   4/ 8   3/110/ 8
BUOY 41010       1550   82 82  150/ 10/ 12 1020.5R   6/ 8   5/120/ 8
ST AUGUSTINE FL  1600   78 78  130/  9/  9 1020.2S


$$



USA.gov is the U.S. government's official web portal to all federal, state and local government web resources and services.